STARLINK-1583, 46064

Orbit data source: Space-Track

STARLINK-1583, 46064 is a payload satellite owned by SpaceX/Seattle (US) in LEO that was launched on Fri, 07 Aug 2020 UTC via an FALCON 9 launch vehicle from the Air Force Eastern Test Range (AFETR). Payloads include a variety of satellites, spacecraft, and rockets equipped with specific instruments for various scientific and technological missions. These include communications satellites like Starlink; space stations such as the ISS; scientific satellites like the Hubble; Earth observation satellites from companies like Planet Labs, Umbra, and HawkEye 360; GPS; miniature CubeSats for education and research; and military/defense satellites.

Loading next visibility...
STARLINK-1583 details
Identifier
46064, 2020-055AP
Orbit
LEO
Last TLE update1 day ago
Origin
Flag of USSpaceX/Seattle (US)
ManufacturerSpaceX/Seattle
MissionOperational Commercial Communications
Bus & MotorSTARLINK, Unknown motor
Mass260 kg wet, ~248 kg dry
Launch date (UTC)
2020-08-07 (4 years ago)
Launch vehicle
FALCON 9
Launch site
Air Force Eastern Test Range (AFETR)
Object type
Payload
Rocket body
Debris
Shape & HBRBox + 1 Pan, 8.86 m
Radar Cross Section13.562 m², Large (>1 m²)

Expand to show TLE details & history

TLE from 1 day ago
0 STARLINK-1583
1 46064U 20055AP  24360.22580741  .00037667  00000-0  25346-2 0  9997
2 46064  53.0558 289.4495 0001318  84.3343 275.7796 15.06393467242260
Epoch: 2024-12-25T05:25Z
Definitive object data (Epoch: 2024-12-25T05:25:09.76Z)
Latitude-0.00003°
Longitude113.93621°
Altitude548.019 km
Speed7.589 km/s
True Right ascension19h 17m 47s
True Declination0° 00' 00"
Sunlit
Object was in daylight at TLE epoch
Visualization TLE readout
Latitude7.40388°
Longitude-77.14484°
Altitude547.054 km
Speed7.59 km/s
Apparent Right ascension03h 34m 27s
Apparent Declination-29° 21' 03"
Sunlit
Object is in full shadow
Visualization observer readout
Local Sidereal Time10:11:20
Azimuth251.593° W
Elevation-24.937°
Doppler factor1
Orbital elements
Apogee altitude548.415 km
Perigee altitude546.589 km
Semi-major axis6,925.639 km
Eccentricity0.0001318
Inclination53.0558°
RAAN289.4495°
Arg. of periapsis84.3343°
True anomaly275.76457°
Mean anomaly275.7796°
Eccentric anomaly275.77209°
Mean motion3.76577 °/min
BSTAR0.0025346
Orbital period95.6 mins
Loading maneuver chart data...
Loading historical data...
Loading historical data...
Loading historical data...
Loading historical data...
Loading historical data...
Loading historical data...
Loading historical data...

STARLINK-1583 Visibility forecast

Observer location: undefined°, undefined

Span
Click to sort rows by Start time (UTC) header in descending order
Start Az.
Max El. time (UTC)
Max El. Az.
Max El.
End time (UTC)
End Az.
7 mins2024-12-26 21:23:05.028Z204.494° SW2024-12-26 21:26:05.028Z150.08° SSE34.917°2024-12-26 21:30:05.028Z62.273° ENE
5 mins2024-12-26 23:04:05.028Z285.78° WNW2024-12-26 23:06:05.028Z332.874° NNW26.841°2024-12-26 23:09:05.028Z30.017° NE
6 mins2024-12-27 04:05:05.028Z325.365° NNW2024-12-27 04:08:05.028Z47.816° ENE36.22°2024-12-27 04:11:05.028Z106.518° ESE
5 mins2024-12-27 05:45:05.028Z271.171° WNW2024-12-27 05:47:05.028Z231.326° WSW22.285°2024-12-27 05:50:05.028Z179.143° S
|